User: anonymous
Location: Unspecified
(0.0000°N, 0.0000°E)
Time: 03:49:15
(UTC+00:00)
Language:

LANDSAT 8 - Orbit

View from above orbital plane
View from above orbital plane
View from above satellite
View from above satellite

Ground track
Ground track

The orbit data is extracted from the following two-line orbital elements,

1 39084U 13008A   14106.18405009  .00000648  00000-0  15372-3 0  4562
2 39084 098.1722 177.3227 0001122 071.7052 288.4264 14.57141306 62422
Epoch (UTC): 16 April 2014 04:25:01
Eccentricity: 0.0001122
inclination: 98.1722°
perigee height: 701 km
apogee height: 703 km
right ascension of ascending node: 177.3227°
argument of perigee: 71.7052°
revolutions per day: 14.57141306
mean anomaly at epoch: 288.4264°
orbit number at epoch: 6242

The dashed part of the orbit path shows where the satellite is in the earth's shadow,  

DLR